This is the latest recevied weather packets stored in our database for station/object KF7OVD-WX. If no packets are shown the sender has not sent any weather packets the latest 10 day(s).
| Time | Temp. | Humidity | Pressure | Rain* | Wind** | Luminosity | Snow |
|---|---|---|---|---|---|---|---|
| 1777837215 | 25° C | 20% | 1018.6 hPa | 0 mm | - | - | - |
| 1777836951 | 26.11° C | 20% | 1018.8 hPa | 0 mm | - | - | - |
| 1777836024 | 25.56° C | 20% | 1019 hPa | 0 mm | - | - | - |
| 1777834551 | 25° C | 20% | 1019.4 hPa | 0 mm | - | - | - |
| 1777833020 | 23.89° C | 22% | 1019.8 hPa | 0 mm | - | - | - |
| 1777832417 | 23.33° C | 22% | 1019.9 hPa | 0 mm | - | - | - |
| 1777830923 | 23.33° C | 22% | 1020.2 hPa | 0 mm | - | - | - |
| 1777827625 | 22.22° C | 27% | 1020.7 hPa | 0 mm | - | - | - |
| 1777827322 | 21.67° C | 26% | 1020.7 hPa | 0 mm | - | - | - |
| 1777825528 | 19.44° C | 26% | 1020.9 hPa | 0 mm | - | - | - |
| 1777824018 | 18.89° C | 24% | 1021 hPa | 0 mm | - | - | - |
| 1777823716 | 17.78° C | 24% | 1021 hPa | 0 mm | - | - | - |
| 1777822525 | 15.56° C | 29% | 1021.3 hPa | 0 mm | - | - | - |
| 1777818946 | 8.33° C | 46% | 1021.3 hPa | 0 mm | - | - | - |
| 1777818624 | 7.78° C | 46% | 1021.3 hPa | 0 mm | - | - | - |
| 1777818322 | 7.22° C | 47% | 1021.3 hPa | 0 mm | - | - | - |
| 1777816226 | 4.44° C | 53% | 1021 hPa | 0 mm | - | - | - |
| 1777815964 | 3.89° C | 55% | 1021 hPa | 0 mm | - | - | - |
| 1777815622 | 2.78° C | 57% | 1021 hPa | 0 mm | - | - | - |
| 1777814716 | 1.67° C | 57% | 1021 hPa | 0 mm | - | - | - |
| 1777812620 | 1.11° C | 56% | 1020.8 hPa | 0 mm | - | - | - |
| 1777812016 | 1.11° C | 56% | 1020.7 hPa | 0 mm | - | - | - |
| 1777811117 | 1.11° C | 57% | 1020.7 hPa | 0 mm | - | - | - |
| 1777810833 | 1.11° C | 58% | 1020.6 hPa | 0 mm | - | - | - |
| 1777807832 | 0.56° C | 61% | 1020.8 hPa | 0 mm | - | - | - |
* Rain latest hour (hover to see other rain measurements)
** Current wind speed in m/s (hover to see current wind gust speed)